DW8530 Weather Reports


Display with metric or nautical units.
time (UTC)temp
F
wind
direction
speed
MPH
gust
MPH
rain 1hr
in
rain 24hr
in
rain mn
in
humidity
%
barometer
mb
20260504082003 44 0 0.0 0.0 0.00 0.00 0.00 73 1009.1
20260504081503 44 0 0.0 0.0 0.00 0.00 0.00 73 1009.2
20260504081003 44 0 0.0 0.0 0.00 0.00 0.00 73 1009.2
20260504080503 44 0 0.0 0.0 0.00 0.00 0.00 73 1009.3
20260504050503 44 0 0.0 0.0 0.00 0.00 0.00 71 1010.0
20260504050214 44 0 0.0 0.0 0.00 0.00 0.00 71 1010.0
20260504045713 44 0 0.0 0.0 0.00 0.00 0.00 71 1010.0
20260504045003 44 0 0.0 0.0 0.00 0.00 0.00 71 1010.1
20260504044503 44 194 0.0 2.0 0.00 0.00 0.00 71 1010.2
20260504044003 44 194 0.0 2.0 0.00 0.00 0.00 71 1010.2
20260504043503 44 194 0.0 2.0 0.00 0.00 0.00 71 1010.3
20260504043003 44 194 0.0 2.0 0.00 0.00 0.00 70 1010.3
20260504042503 44 194 0.0 2.0 0.00 0.00 0.00 70 1010.5
20260504042003 44 194 1.0 2.0 0.00 0.00 0.00 70 1010.5
20260504041503 43 194 0.0 2.0 0.00 0.00 0.00 70 1010.6
20260504041003 43 194 0.0 2.0 0.00 0.00 0.00 70 1010.7
20260504040503 43 0 0.0 0.0 0.00 0.00 0.00 70 1010.5
20260504040003 43 194 0.0 2.0 0.00 0.00 0.00 69 1010.5
20260504035503 43 180 1.0 3.0 0.00 0.00 0.00 69 1010.4
20260504035003 43 189 1.0 4.0 0.00 0.00 0.00 69 1010.5
20260504034503 43 227 0.0 4.0 0.00 0.00 0.00 69 1010.3
20260504034003 43 288 0.0 2.0 0.00 0.00 0.00 68 1010.3
20260504033503 43 288 1.0 2.0 0.00 0.00 0.00 68 1010.3
20260504033003 43 288 1.0 3.0 0.00 0.00 0.00 67 1010.2
20260504032503 43 288 0.0 3.0 0.00 0.00 0.00 66 1010.2
20260504032003 43 0 0.0 0.0 0.00 0.00 0.00 66 1010.1
20260504031503 43 0 0.0 0.0 0.00 0.00 0.00 65 1010.1
20260504031003 43 0 0.0 0.0 0.00 0.00 0.00 65 1010.0
20260504030503 44 0 0.0 0.0 0.00 0.00 0.00 64 1010.0
20260504030003 44 0 0.0 0.0 0.00 0.00 0.00 63 1009.9
20260504025503 44 0 0.0 0.0 0.00 0.00 0.00 62 1010.0
20260504025213 44 0 0.0 0.0 0.00 0.00 0.00 62 1009.9
20260504024503 45 0 0.0 0.0 0.00 0.00 0.00 60 1009.8
20260504024003 45 0 0.0 0.0 0.00 0.00 0.00 60 1009.8
20260504023503 46 0 0.0 0.0 0.00 0.00 0.00 59 1009.8
20260504023003 46 0 0.0 0.0 0.00 0.00 0.00 58 1009.9
20260504022503 46 0 0.0 0.0 0.00 0.00 0.00 57 1010.1
20260504022003 47 0 0.0 0.0 0.00 0.00 0.00 57 1010.0
20260504021503 47 0 0.0 0.0 0.00 0.00 0.00 56 1010.1
20260504021003 47 0 0.0 0.0 0.00 0.00 0.00 53 1010.0
20260504020503 48 0 0.0 0.0 0.00 0.00 0.00 52 1010.0
20260504020003 48 0 0.0 0.0 0.00 0.00 0.00 51 1010.0
20260504015503 48 0 0.0 0.0 0.00 0.00 0.00 51 1010.1
20260504015213 49 0 0.0 0.0 0.00 0.00 0.00 50 1010.0
20260504014503 49 288 0.0 1.0 0.00 0.00 0.00 49 1009.9
20260504014003 49 288 0.0 1.0 0.00 0.00 0.00 48 1010.0
20260504013714 49 288 0.0 1.0 0.00 0.00 0.00 48 1010.0
20260504013003 50 288 0.0 2.0 0.00 0.00 0.00 47 1009.9
20260504012503 50 280 1.0 3.0 0.00 0.00 0.00 47 1009.9
20260504012213 50 271 1.0 3.0 0.00 0.00 0.00 46 1009.8
20260504011503 50 264 1.0 4.0 0.00 0.00 0.00 46 1009.7
20260504011003 50 266 1.0 4.0 0.00 0.00 0.00 45 1009.8
20260504010503 50 254 1.0 4.0 0.00 0.00 0.00 44 1009.6
20260504010212 50 243 1.0 3.0 0.00 0.00 0.00 45 1009.6
20260504005503 51 240 0.0 3.0 0.00 0.00 0.00 43 1009.5
20260504005003 51 240 1.0 3.0 0.00 0.00 0.00 43 1009.5
20260504004503 51 243 1.0 2.0 0.00 0.00 0.00 43 1009.5
20260504004003 52 245 1.0 5.0 0.00 0.00 0.00 42 1009.5
20260504003503 52 252 1.0 5.0 0.00 0.00 0.00 41 1009.4
20260504003003 52 253 1.0 5.0 0.00 0.00 0.00 41 1009.3
20260504002503 52 247 1.0 5.0 0.00 0.00 0.00 40 1009.2
20260504002003 52 271 2.0 6.0 0.00 0.00 0.00 40 1009.2
20260504001503 52 275 3.0 10.0 0.00 0.00 0.00 39 1009.0
20260504001003 53 266 3.0 10.0 0.00 0.00 0.00 39 1009.0
20260504000503 53 262 2.0 6.0 0.00 0.00 0.00 38 1008.9
20260504000003 53 251 2.0 5.0 0.00 0.00 0.00 38 1008.9
20260503235503 53 249 3.0 11.0 0.00 0.00 0.00 37 1008.8
20260503235003 54 257 4.0 11.0 0.00 0.00 0.00 37 1008.8
20260503234503 54 262 3.0 7.0 0.00 0.00 0.00 37 1008.8
20260503234003 54 247 4.0 9.0 0.00 0.00 0.00 36 1008.7
20260503233503 54 247 4.0 10.0 0.00 0.00 0.00 35 1008.6
20260503233003 54 259 4.0 11.0 0.00 0.00 0.00 35 1008.5
20260503232503 55 270 4.0 11.0 0.00 0.00 0.00 34 1008.5
20260503232003 55 270 4.0 12.0 0.00 0.00 0.00 34 1008.4
20260503231503 55 257 5.0 12.0 0.00 0.00 0.00 33 1008.3
20260503231003 55 268 5.0 11.0 0.00 0.00 0.00 33 1008.3
20260503230503 55 276 4.0 11.0 0.00 0.00 0.00 33 1008.2
20260503230003 56 275 4.0 10.0 0.00 0.00 0.00 31 1008.1
20260503225503 56 286 4.0 10.0 0.00 0.00 0.00 31 1008.1
20260503225003 56 273 5.0 11.0 0.00 0.00 0.00 31 1008.0
20260503224503 56 268 5.0 12.0 0.00 0.00 0.00 31 1008.0
20260503224003 56 259 5.0 12.0 0.00 0.00 0.00 32 1007.9
20260503223503 56 242 5.0 12.0 0.00 0.00 0.00 31 1007.9
20260503223003 56 257 4.0 11.0 0.00 0.00 0.00 30 1007.8
20260503222713 56 283 5.0 11.0 0.00 0.00 0.00 31 1007.8
20260503222003 56 274 5.0 14.0 0.00 0.00 0.00 31 1007.8
20260503221503 56 260 4.0 13.0 0.00 0.00 0.00 31 1008.0
20260503221003 56 269 4.0 12.0 0.00 0.00 0.00 31 1007.8
20260503220503 56 290 4.0 12.0 0.00 0.00 0.00 31 1007.8
20260503220213 55 274 5.0 15.0 0.00 0.00 0.00 31 1007.8
20260503215503 55 249 7.0 18.0 0.00 0.00 0.00 31 1007.8
20260503215003 55 264 6.0 18.0 0.00 0.00 0.00 30 1007.8
20260503214503 56 271 5.0 11.0 0.00 0.00 0.00 32 1007.9
20260503214003 56 258 5.0 12.0 0.00 0.00 0.00 31 1007.8
20260503213503 56 261 6.0 15.0 0.00 0.00 0.00 31 1007.9
20260503213003 56 252 6.0 15.0 0.00 0.00 0.00 31 1007.8
20260503212503 56 254 5.0 14.0 0.00 0.00 0.00 31 1007.8
20260503212213 56 261 5.0 13.0 0.00 0.00 0.00 31 1007.8
20260503211503 56 252 6.0 15.0 0.00 0.00 0.00 31 1007.9
20260503211003 56 248 5.0 15.0 0.00 0.00 0.00 32 1007.9
20260503210712 56 256 4.0 11.0 0.00 0.00 0.00 32 1007.9
20260503210003 56 252 6.0 12.0 0.00 0.00 0.00 32 1007.9
20260503205503 56 274 6.0 13.0 0.00 0.00 0.00 32 1007.8
20260503205003 57 292 6.0 13.0 0.00 0.00 0.00 32 1007.9
20260503204714 57 290 5.0 13.0 0.00 0.00 0.00 32 1008.0
20260503204003 57 301 4.0 11.0 0.00 0.00 0.00 33 1008.0
20260503203503 57 302 4.0 11.0 0.00 0.00 0.00 33 1008.2
20260503203003 57 297 4.0 11.0 0.00 0.00 0.00 35 1008.1
20260503202503 55 270 5.0 14.0 0.00 0.00 0.00 34 1008.2
20260503202003 55 255 5.0 14.0 0.00 0.00 0.00 35 1008.2
20260503201503 55 257 4.0 10.0 0.00 0.00 0.00 35 1008.2
20260503201003 55 257 4.0 13.0 0.00 0.00 0.00 34 1008.4
20260503200503 55 267 4.0 13.0 0.00 0.00 0.00 34 1008.3
20260503200003 55 289 4.0 10.0 0.00 0.00 0.00 34 1008.4
20260503195503 55 289 4.0 10.0 0.00 0.00 0.00 36 1008.4
20260503195003 55 298 5.0 14.0 0.00 0.00 0.00 35 1008.5
20260503194503 54 307 5.0 14.0 0.00 0.00 0.00 37 1008.7
20260503194003 53 306 3.0 14.0 0.00 0.00 0.00 36 1008.7
20260503193713 53 306 3.0 8.0 0.00 0.00 0.00 38 1008.7
20260503193213 53 333 3.0 5.0 0.00 0.00 0.00 39 1008.9
20260503192714 53 297 4.0 9.0 0.00 0.00 0.00 38 1009.0
20260503192003 53 250 5.0 13.0 0.00 0.00 0.00 37 1009.1
20260503191713 53 261 5.0 13.0 0.00 0.00 0.00 38 1009.2
20260503191003 53 296 5.0 14.0 0.00 0.00 0.00 37 1009.2
20260503190503 53 307 4.0 14.0 0.00 0.00 0.00 36 1009.4
20260503190003 53 307 5.0 17.0 0.00 0.00 0.00 38 1009.1
20260503185503 53 302 6.0 17.0 0.00 0.00 0.00 37 1009.4
20260503185003 54 300 4.0 11.0 0.00 0.00 0.00 38 1009.4
20260503184713 53 294 3.0 9.0 0.00 0.00 0.00 39 1009.4
20260503184003 52 304 4.0 15.0 0.00 0.00 0.00 40 1009.5
20260503183504 52 304 4.0 15.0 0.00 0.00 0.00 38 1009.4
20260503183003 52 307 4.0 12.0 0.00 0.00 0.00 39 1009.7
20260503182503 52 272 6.0 16.0 0.00 0.00 0.00 40 1009.6
20260503182003 52 261 6.0 18.0 0.00 0.00 0.00 39 1009.6
20260503181504 52 284 5.0 18.0 0.00 0.00 0.00 39 1009.6
20260503181003 52 299 4.0 11.0 0.00 0.00 0.00 38 1009.5
20260503180503 52 300 4.0 11.0 0.00 0.00 0.00 38 1009.5
20260503180003 52 306 5.0 11.0 0.00 0.00 0.00 39 1009.6
20260503175503 51 305 5.0 11.0 0.00 0.00 0.00 40 1009.6
20260503175003 51 291 5.0 12.0 0.00 0.00 0.00 39 1009.7
20260503174503 51 293 6.0 12.0 0.00 0.00 0.00 38 1009.9
20260503174003 50 307 5.0 11.0 0.00 0.00 0.00 39 1009.9
20260503173503 51 312 5.0 11.0 0.00 0.00 0.00 39 1009.8
20260503173003 50 298 5.0 11.0 0.00 0.00 0.00 39 1009.9
20260503172504 51 299 4.0 13.0 0.00 0.00 0.00 39 1009.9
20260503172003 51 298 4.0 13.0 0.00 0.00 0.00 39 1009.9
20260503171503 51 288 4.0 8.0 0.00 0.00 0.00 39 1009.9
20260503171003 51 303 4.0 10.0 0.00 0.00 0.00 39 1009.8
20260503170503 50 325 5.0 15.0 0.00 0.00 0.00 39 1009.8
20260503150503 48 298 4.0 12.0 0.00 0.00 0.00 45 1010.3
20260503131214 44 297 3.0 8.0 0.00 0.00 0.00 69 1010.7
20260503130713 44 285 4.0 8.0 0.00 0.00 0.00 68 1010.7
20260503110503 40 311 2.0 6.0 0.00 0.00 0.00 78 1010.3
20260503090503 38 267 1.0 4.0 0.00 0.00 0.00 77 1010.1